STARLINK W (44255 NORAD) Tracking and Keplerian Element Data

This shows tracking and keplerian element data for the satellite.

Feedback or suggestion? Click here.




ElementValue
Catalog44255
NameSTARLINK W
Epoch Orbit370
Epoch Day173.87827009
Epoch Year2019
RAAN38.1289
Inclination53.0043
Eccentricity0.000224
Argument of Perigee110.3494
Mean Anonmoly249.7734
Mean Motion15.05557721
Decay Rate1.671E-05
L11 44255U 19029W 19173.87827009 .00001671 00000-0 13391-3 0 9998
L22 44255 53.0043 38.1289 0002240 110.3494 249.7734 15.05557721 3702

Live tracking and technical data element details for STARLINK W (NORAD 44255). STARLINK W can be tracked NOW for your location showing map with azimuth and elevation plus other details from your city location.

Track the satellite on the map from your city or location and see movement details for azimuth, elevation, latitude, longitude, range, height, and movement on the map or in text.







IsCatalogInMostPopularTable: catalog: 44255, numindb: 35
Update: records affected: 1



GetName: 44255 STARLINK W

Hit Count: updated at: Wed, 17 Jul 2019 08:16:33 GMT